WXM80 ListenWXM80 Stop

You find our weather info also at:

UK Metoffice

WeatherCloud

Weather Underground

Northeastern Weather Network

AWEKAS

Citizen Weather Observer Program (CWOP)

HAMweather, WeatherForYou, PWS Weather


Weather Underground History page Text

Daily Summary for August 11, 2016 Units:  English    Metric   Both
« Previous Day
Next Day »
Daily Weekly Monthly Yearly Custom
  High: Low: Average:
Temperature: 95.9 °F 76.3 °F 83.7 °F
Dew Point: 81.3 °F 74.0 °F 77 °F
Humidity: 95 % 58 % 82 %
Wind Speed: 6.0 mph 0.0 mph 1.5 mph
Wind Gust: 10.4 mph - -
Wind:- - SW
Pressure: 30.07 in 29.93 in -
Precipitation: 0.02 in    
Historical Graphs
 
 
Tabular Data for August 11, 2016
Time Temperature Dew Point Pressure Wind Wind Speed Wind Gust Humidity Rainfall Rate (Hourly)
00:03 77.6 °F 76.1 °F 30.07 in SSW 1.1 mph 3.5 mph 95 % 0.00 in
00:08 77.6 °F 76.1 °F 30.07 in SW 2.1 mph 4.0 mph 95 % 0.00 in
00:13 77.5 °F 76.0 °F 30.07 in WSW 2.7 mph 4.6 mph 95 % 0.00 in
00:18 77.5 °F 76.0 °F 30.06 in West 1.5 mph 5.0 mph 95 % 0.00 in
00:23 77.5 °F 76.0 °F 30.06 in SSW 1.5 mph 4.0 mph 95 % 0.00 in
00:28 77.5 °F 76.0 °F 30.06 in SSW 3.2 mph 4.0 mph 95 % 0.00 in
00:34 77.5 °F 76.0 °F 30.06 in SW 0.8 mph 3.5 mph 95 % 0.00 in
00:39 77.5 °F 76.0 °F 30.06 in Calm   2.3 mph 95 % 0.00 in
00:44 77.5 °F 76.0 °F 30.06 in SSW 0.7 mph 3.5 mph 95 % 0.00 in
00:49 77.5 °F 76.0 °F 30.06 in SSW 1.3 mph 4.6 mph 95 % 0.00 in
00:54 77.4 °F 75.9 °F 30.06 in WSW 3.2 mph 5.8 mph 95 % 0.00 in
00:59 77.4 °F 75.9 °F 30.06 in WSW 0.2 mph 1.2 mph 95 % 0.00 in
01:04 77.4 °F 75.9 °F 30.06 in SSW 1.8 mph 3.5 mph 95 % 0.00 in
01:09 77.4 °F 75.9 °F 30.05 in SSW 0.6 mph 2.3 mph 95 % 0.00 in
01:14 77.4 °F 75.9 °F 30.05 in SW 1.2 mph 3.0 mph 95 % 0.00 in
01:25 77.3 °F 75.8 °F 30.05 in SSW 0.7 mph 2.3 mph 95 % 0.00 in
01:30 77.3 °F 75.8 °F 30.04 in SW 0.1 mph 3.5 mph 95 % 0.00 in
01:35 77.3 °F 75.8 °F 30.05 in SW 0.2 mph 3.5 mph 95 % 0.00 in
01:40 77.3 °F 75.8 °F 30.04 in SSW 1.3 mph 2.3 mph 95 % 0.00 in
01:45 77.3 °F 75.8 °F 30.04 in SSW 1.0 mph 3.5 mph 95 % 0.00 in
01:50 77.2 °F 75.7 °F 30.04 in Calm   2.3 mph 95 % 0.00 in
01:55 77.2 °F 75.7 °F 30.04 in WSW 0.8 mph 4.0 mph 95 % 0.00 in
02:00 77.2 °F 75.7 °F 30.04 in SW 1.1 mph 3.0 mph 95 % 0.00 in
02:05 77.2 °F 75.7 °F 30.04 in SW 1.5 mph 3.5 mph 95 % 0.00 in
02:10 77.1 °F 75.6 °F 30.04 in SSW 1.9 mph 2.3 mph 95 % 0.00 in
02:16 77.1 °F 75.6 °F 30.04 in Calm   5.0 mph 95 % 0.00 in
02:21 77.1 °F 75.6 °F 30.04 in Calm   2.3 mph 95 % 0.00 in
02:26 77.1 °F 75.6 °F 30.05 in SW 0.6 mph 2.3 mph 95 % 0.00 in
02:31 77.1 °F 75.6 °F 30.05 in SSE 1.2 mph 3.5 mph 95 % 0.00 in
02:36 77.0 °F 75.5 °F 30.05 in WSW 0.1 mph 1.2 mph 95 % 0.00 in
02:41 77.0 °F 75.5 °F 30.04 in WSW 0.1 mph 1.2 mph 95 % 0.00 in
02:46 77.0 °F 75.5 °F 30.05 in SSW 0.4 mph 2.3 mph 95 % 0.00 in
02:51 76.9 °F 75.4 °F 30.05 in SSW 1.8 mph 3.5 mph 95 % 0.00 in
03:01 76.9 °F 75.4 °F 30.05 in SW 0.4 mph 3.5 mph 95 % 0.00 in
03:07 76.9 °F 75.4 °F 30.05 in SW 0.9 mph 1.2 mph 95 % 0.00 in
03:12 76.9 °F 75.4 °F 30.05 in WSW 1.2 mph 3.5 mph 95 % 0.00 in
03:17 76.8 °F 75.3 °F 30.04 in WSW 0.7 mph 3.5 mph 95 % 0.00 in
03:32 76.7 °F 75.2 °F 30.04 in Calm   1.2 mph 95 % 0.00 in
03:37 76.7 °F 75.2 °F 30.04 in SW 0.3 mph 2.3 mph 95 % 0.00 in
03:42 76.7 °F 75.2 °F 30.04 in SW 0.1 mph 2.3 mph 95 % 0.00 in
03:47 76.6 °F 75.1 °F 30.04 in WSW 1.6 mph 2.3 mph 95 % 0.00 in
03:53 76.6 °F 75.1 °F 30.04 in Calm     95 % 0.00 in
03:58 76.6 °F 75.1 °F 30.04 in SW 0.3 mph 1.2 mph 95 % 0.00 in
04:03 76.5 °F 75.0 °F 30.03 in SW 0.5 mph 2.3 mph 95 % 0.00 in
04:08 76.5 °F 75.0 °F 30.03 in SW 0.8 mph 2.3 mph 95 % 0.00 in
04:13 76.5 °F 75.0 °F 30.03 in SW 0.2 mph 1.2 mph 95 % 0.00 in
04:18 76.5 °F 75.0 °F 30.03 in SSW 1.4 mph 3.5 mph 95 % 0.00 in
04:23 76.4 °F 74.9 °F 30.04 in SSW 3.0 mph 4.6 mph 95 % 0.00 in
04:28 76.4 °F 74.9 °F 30.03 in SSW 0.9 mph 4.0 mph 95 % 0.00 in
04:33 76.4 °F 74.9 °F 30.04 in SW 1.0 mph 4.0 mph 95 % 0.00 in
04:38 76.4 °F 74.9 °F 30.04 in SSW 0.8 mph 1.2 mph 95 % 0.00 in
04:44 76.4 °F 74.9 °F 30.04 in SSW 0.9 mph 4.0 mph 95 % 0.00 in
04:49 76.4 °F 74.9 °F 30.03 in WSW 1.1 mph 3.5 mph 95 % 0.00 in
04:54 76.3 °F 74.8 °F 30.04 in South 2.3 mph 4.6 mph 95 % 0.00 in
04:59 76.4 °F 74.9 °F 30.04 in SW 2.7 mph 4.6 mph 95 % 0.00 in
05:04 76.4 °F 74.9 °F 30.04 in South 2.2 mph 3.5 mph 95 % 0.00 in
05:09 76.3 °F 74.8 °F 30.04 in SW 1.7 mph 5.8 mph 95 % 0.00 in
05:14 76.4 °F 74.9 °F 30.04 in SSW 1.4 mph 4.0 mph 95 % 0.00 in
05:19 76.4 °F 74.9 °F 30.04 in WSW 1.4 mph 3.5 mph 95 % 0.00 in
05:24 76.4 °F 74.9 °F 30.04 in SSW 1.8 mph 3.5 mph 95 % 0.00 in
05:29 76.4 °F 74.9 °F 30.04 in SW 3.2 mph 8.1 mph 95 % 0.00 in
05:34 76.4 °F 74.9 °F 30.05 in SSW 3.4 mph 4.0 mph 95 % 0.00 in
05:39 76.4 °F 74.9 °F 30.05 in SSW 3.8 mph 4.0 mph 95 % 0.00 in
05:45 76.4 °F 74.9 °F 30.05 in SW 2.9 mph 4.6 mph 95 % 0.00 in
05:50 76.5 °F 75.0 °F 30.06 in SW 1.2 mph 5.8 mph 95 % 0.00 in
05:55 76.5 °F 75.0 °F 30.06 in SSW 2.4 mph 4.6 mph 95 % 0.00 in
06:00 76.6 °F 75.1 °F 30.06 in WSW 1.0 mph 3.5 mph 95 % 0.00 in
06:05 76.6 °F 75.1 °F 30.06 in WSW 1.1 mph 3.5 mph 95 % 0.00 in
06:10 76.7 °F 75.2 °F 30.06 in WSW 1.3 mph 3.5 mph 95 % 0.00 in
06:15 76.7 °F 75.2 °F 30.06 in SSW 0.4 mph 3.5 mph 95 % 0.00 in
06:20 76.8 °F 75.3 °F 30.06 in SW 0.4 mph 1.2 mph 95 % 0.00 in
06:25 76.8 °F 75.3 °F 30.05 in WSW 0.7 mph 1.2 mph 95 % 0.00 in
06:30 76.9 °F 75.4 °F 30.05 in Calm   1.2 mph 95 % 0.00 in
06:35 76.9 °F 75.4 °F 30.05 in WSW 0.5 mph 2.3 mph 95 % 0.00 in
06:41 77.0 °F 75.5 °F 30.06 in SW 2.0 mph 5.0 mph 95 % 0.00 in
06:46 77.1 °F 75.6 °F 30.06 in Calm   8.0 mph 95 % 0.00 in
06:51 77.2 °F 75.7 °F 30.06 in Calm   5.0 mph 95 % 0.00 in
06:56 77.3 °F 75.8 °F 30.06 in West 1.0 mph 8.1 mph 95 % 0.00 in
07:01 77.4 °F 75.9 °F 30.06 in SW 0.6 mph 3.5 mph 95 % 0.00 in
07:06 77.5 °F 75.6 °F 30.05 in South 1.5 mph 3.5 mph 94 % 0.00 in
07:11 77.6 °F 75.7 °F 30.06 in WSW 1.5 mph 3.5 mph 94 % 0.00 in
07:16 77.6 °F 75.7 °F 30.05 in WSW 1.8 mph 4.6 mph 94 % 0.00 in
07:21 77.6 °F 75.7 °F 30.05 in WSW 1.6 mph 3.5 mph 94 % 0.00 in
07:26 77.7 °F 75.8 °F 30.05 in SW 1.3 mph 3.5 mph 94 % 0.00 in
07:31 77.7 °F 75.8 °F 30.06 in SSW 2.3 mph 3.5 mph 94 % 0.00 in
07:36 77.7 °F 75.8 °F 30.06 in SSW 1.2 mph 3.5 mph 94 % 0.00 in
07:41 77.8 °F 75.9 °F 30.06 in SW 0.7 mph 4.6 mph 94 % 0.00 in
07:47 77.9 °F 76.0 °F 30.06 in SSW 2.0 mph 4.0 mph 94 % 0.00 in
07:52 78.0 °F 76.1 °F 30.06 in SW 3.0 mph 4.6 mph 94 % 0.00 in
07:57 78.2 °F 76.3 °F 30.06 in SSW 2.3 mph 4.6 mph 94 % 0.00 in
08:02 78.3 °F 76.4 °F 30.06 in Calm   1.2 mph 94 % 0.00 in
08:07 78.5 °F 76.6 °F 30.06 in SW 2.3 mph 3.5 mph 94 % 0.00 in
08:12 78.6 °F 76.7 °F 30.06 in SW 0.7 mph 2.3 mph 94 % 0.00 in
08:17 78.7 °F 76.8 °F 30.06 in SW 1.3 mph 3.0 mph 94 % 0.00 in
08:22 78.9 °F 77.0 °F 30.06 in SW 1.5 mph 6.9 mph 94 % 0.00 in
08:27 79.0 °F 77.1 °F 30.07 in SW 1.3 mph 2.0 mph 94 % 0.00 in
08:32 79.2 °F 77.3 °F 30.06 in WSW 3.1 mph 6.0 mph 94 % 0.00 in
08:38 79.4 °F 77.2 °F 30.06 in SSW 1.4 mph 1.4 mph 93 % 0.00 in
08:43 79.7 °F 77.5 °F 30.06 in West 2.6 mph 8.1 mph 93 % 0.00 in
08:48 79.9 °F 77.7 °F 30.06 in SSW 1.8 mph 3.5 mph 93 % 0.00 in
08:53 80.2 °F 78.0 °F 30.06 in SW 1.7 mph 3.5 mph 93 % 0.00 in
08:58 80.5 °F 78.0 °F 30.06 in SW 3.6 mph 5.8 mph 92 % 0.00 in
09:03 80.7 °F 78.2 °F 30.05 in WSW 1.3 mph 3.5 mph 92 % 0.00 in
09:08 80.8 °F 77.9 °F 30.05 in SSW 4.4 mph 6.9 mph 91 % 0.00 in
09:13 81.0 °F 77.8 °F 30.05 in WSW 1.2 mph 3.5 mph 90 % 0.00 in
09:18 81.2 °F 78.0 °F 30.05 in WSW 1.4 mph 6.9 mph 90 % 0.00 in
09:23 81.4 °F 78.2 °F 30.05 in SW 4.0 mph 8.1 mph 90 % 0.00 in
09:29 81.6 °F 78.0 °F 30.05 in SW 3.6 mph 6.9 mph 89 % 0.00 in
09:34 81.8 °F 78.2 °F 30.05 in SW 2.3 mph 4.6 mph 89 % 0.00 in
09:39 82.0 °F 78.4 °F 30.05 in South 5.9 mph 10.4 mph 89 % 0.00 in
09:44 82.4 °F 78.5 °F 30.05 in SSW 3.6 mph 8.1 mph 88 % 0.00 in
09:49 82.8 °F 78.9 °F 30.05 in SW 0.4 mph 3.5 mph 88 % 0.00 in
09:54 83.2 °F 78.9 °F 30.04 in SW 0.8 mph 3.5 mph 87 % 0.00 in
09:59 83.4 °F 79.1 °F 30.04 in SW 2.4 mph 4.6 mph 87 % 0.00 in
10:04 83.7 °F 79.1 °F 30.05 in SW 2.4 mph 3.5 mph 86 % 0.00 in
10:09 83.9 °F 78.9 °F 30.05 in WSW 3.2 mph 5.8 mph 85 % 0.00 in
10:14 84.4 °F 79.7 °F 30.05 in SW 3.9 mph 6.0 mph 86 % 0.00 in
10:19 85.0 °F 80.0 °F 30.04 in WNW 3.1 mph 6.9 mph 85 % 0.00 in
10:25 85.5 °F 80.1 °F 30.05 in SW 1.9 mph 4.0 mph 84 % 0.00 in
10:30 86.1 °F 80.7 °F 30.05 in South 2.0 mph 3.0 mph 84 % 0.00 in
10:35 86.9 °F 80.0 °F 30.05 in SW 4.7 mph 6.0 mph 80 % 0.00 in
10:40 87.9 °F 81.0 °F 30.05 in NW 4.0 mph 6.0 mph 80 % 0.00 in
10:45 88.7 °F 81.0 °F 30.04 in SSW 4.2 mph 5.8 mph 78 % 0.00 in
10:50 89.5 °F 81.3 °F 30.04 in SW 3.7 mph 6.9 mph 77 % 0.00 in
10:55 90.0 °F 80.2 °F 30.05 in South 4.5 mph 8.1 mph 73 % 0.00 in
11:00 90.1 °F 79.8 °F 30.04 in WSW 3.3 mph 6.9 mph 72 % 0.00 in
11:05 90.1 °F 79.8 °F 30.04 in WSW 3.9 mph 5.8 mph 72 % 0.00 in
11:16 90.6 °F 80.3 °F 30.04 in SW 4.3 mph 5.8 mph 72 % 0.00 in
11:21 91.0 °F 80.7 °F 30.04 in SW 2.0 mph 5.0 mph 72 % 0.00 in
11:26 91.6 °F 80.9 °F 30.04 in SW 6.0 mph 9.0 mph 71 % 0.00 in
11:36 92.4 °F 79.9 °F 30.04 in West 1.0 mph 6.0 mph 67 % 0.00 in
11:41 92.6 °F 80.5 °F 30.03 in West 2.0 mph 6.0 mph 68 % 0.00 in
11:46 92.9 °F 79.9 °F 30.03 in NW 4.3 mph 5.8 mph 66 % 0.00 in
11:51 93.1 °F 80.0 °F 30.03 in West 2.0 mph 7.0 mph 66 % 0.00 in
11:56 93.3 °F 80.2 °F 30.03 in WSW 3.0 mph 8.0 mph 66 % 0.00 in
12:01 93.7 °F 79.7 °F 30.03 in NW 4.1 mph 5.8 mph 64 % 0.00 in
12:06 94.1 °F 80.0 °F 30.03 in WNW 2.0 mph 7.0 mph 64 % 0.00 in
12:11 94.2 °F 79.2 °F 30.03 in West 2.0 mph 5.0 mph 62 % 0.00 in
12:16 94.3 °F 78.8 °F 30.02 in WNW 3.0 mph 5.0 mph 61 % 0.00 in
12:21 94.7 °F 80.1 °F 30.02 in West 3.0 mph 7.0 mph 63 % 0.00 in
12:26 94.9 °F 78.8 °F 30.02 in West 1.0 mph 7.0 mph 60 % 0.00 in
12:31 94.9 °F 78.3 °F 30.02 in WNW 2.0 mph 4.0 mph 59 % 0.00 in
12:36 94.8 °F 78.7 °F 30.02 in WSW 2.5 mph 3.5 mph 60 % 0.00 in
12:41 94.9 °F 78.8 °F 30.02 in WSW 6.0 mph 9.0 mph 60 % 0.00 in
12:46 94.7 °F 78.7 °F 30.02 in SW 5.0 mph 7.0 mph 60 % 0.00 in
12:51 94.7 °F 79.2 °F 30.01 in SW 2.0 mph 7.0 mph 61 % 0.00 in
12:56 95.2 °F 81.1 °F 30.01 in WSW 2.0 mph 6.0 mph 64 % 0.00 in
13:01 95.9 °F 79.8 °F 30.01 in SSW 4.3 mph 4.6 mph 60 % 0.00 in
13:06 95.9 °F 79.8 °F 30.00 in SW 1.0 mph 7.0 mph 60 % 0.00 in
13:11 95.7 °F 78.6 °F 30.00 in SW 3.0 mph 7.0 mph 58 % 0.00 in
13:16 95.3 °F 78.7 °F 30.00 in WSW 1.0 mph 6.0 mph 59 % 0.00 in
13:21 94.9 °F 78.3 °F 30.00 in WSW 3.0 mph 7.0 mph 59 % 0.00 in
13:26 94.7 °F 78.7 °F 30.00 in West 2.0 mph 7.0 mph 60 % 0.00 in
13:31 94.5 °F 79.0 °F 30.00 in West 2.0 mph 6.0 mph 61 % 0.00 in
13:36 94.2 °F 77.6 °F 30.00 in West 5.0 mph 7.0 mph 59 % 0.00 in
13:41 93.8 °F 77.8 °F 30.00 in West 1.0 mph 8.0 mph 60 % 0.00 in
13:46 93.7 °F 78.7 °F 29.99 in Calm   3.0 mph 62 % 0.00 in
13:51 93.7 °F 78.2 °F 29.99 in West 1.0 mph 4.0 mph 61 % 0.00 in
13:56 93.7 °F 78.2 °F 29.99 in WSW 3.0 mph 6.0 mph 61 % 0.00 in
14:01 93.6 °F 77.6 °F 29.99 in WSW 2.3 mph 4.0 mph 60 % 0.00 in
14:06 93.3 °F 77.8 °F 29.99 in West 2.0 mph 5.0 mph 61 % 0.00 in
14:11 93.0 °F 78.1 °F 29.99 in WNW 1.0 mph 5.0 mph 62 % 0.00 in
14:16 92.8 °F 78.3 °F 29.98 in WSW 1.0 mph 6.0 mph 63 % 0.00 in
14:20 92.4 °F 78.0 °F 29.98 in SW 0.1 mph 3.5 mph 63 % 0.00 in
14:26 92.2 °F 78.3 °F 29.98 in West 1.0 mph 5.0 mph 64 % 0.00 in
14:31 92.1 °F 79.1 °F 29.98 in Calm   5.0 mph 66 % 0.00 in
14:36 92.2 °F 78.7 °F 29.98 in West 5.0 mph 7.0 mph 65 % 0.00 in
14:41 92.5 °F 79.4 °F 29.98 in WSW 3.0 mph 5.0 mph 66 % 0.00 in
14:46 93.0 °F 80.0 °F 29.97 in SW 2.0 mph 7.0 mph 66 % 0.00 in
14:56 93.9 °F 79.9 °F 29.97 in SSE 2.0 mph 4.0 mph 64 % 0.00 in
14:57 93.8 °F 79.8 °F 29.97 in SSE 0.6 mph 2.3 mph 64 % 0.00 in
15:02 93.8 °F 79.8 °F 29.96 in SSW 1.7 mph 4.0 mph 64 % 0.00 in
15:08 93.7 °F 79.2 °F 29.96 in SE 2.3 mph 4.0 mph 63 % 0.00 in
15:13 93.6 °F 79.1 °F 29.96 in SE 0.2 mph 3.5 mph 63 % 0.00 in
15:18 93.7 °F 79.2 °F 29.96 in WSW 1.5 mph 4.6 mph 63 % 0.00 in
15:23 93.7 °F 78.2 °F 29.96 in SE 1.0 mph 3.5 mph 61 % 0.00 in
15:33 93.7 °F 79.2 °F 29.96 in SW 1.1 mph 3.5 mph 63 % 0.00 in
15:38 93.7 °F 79.2 °F 29.95 in SW 3.5 mph 6.9 mph 63 % 0.00 in
15:43 93.6 °F 79.6 °F 29.96 in SE 1.3 mph 3.5 mph 64 % 0.00 in
15:48 93.5 °F 79.5 °F 29.96 in SW 0.1 mph 6.9 mph 64 % 0.00 in
15:54 93.5 °F 80.0 °F 29.96 in South 1.1 mph 3.0 mph 65 % 0.00 in
15:59 93.7 °F 80.6 °F 29.96 in SW 0.6 mph 3.5 mph 66 % 0.00 in
16:04 93.7 °F 80.2 °F 29.96 in South 1.5 mph 4.6 mph 65 % 0.00 in
16:09 93.6 °F 79.1 °F 29.95 in South 0.6 mph 2.3 mph 63 % 0.00 in
16:14 93.4 °F 79.4 °F 29.95 in SSW 0.9 mph 3.5 mph 64 % 0.00 in
16:19 93.6 °F 80.1 °F 29.96 in SSW 4.7 mph 9.2 mph 65 % 0.00 in
16:24 93.6 °F 79.6 °F 29.95 in SSW 2.8 mph 5.0 mph 64 % 0.00 in
16:29 93.3 °F 78.8 °F 29.95 in SW 4.3 mph 5.0 mph 63 % 0.00 in
16:34 93.0 °F 79.0 °F 29.94 in WSW 1.4 mph 3.5 mph 64 % 0.00 in
16:40 92.7 °F 78.7 °F 29.94 in SW 0.9 mph 3.5 mph 64 % 0.00 in
16:45 92.3 °F 78.8 °F 29.94 in SSW 5.1 mph 6.9 mph 65 % 0.00 in
16:50 91.9 °F 78.4 °F 29.94 in SE 0.2 mph 1.2 mph 65 % 0.00 in
16:55 91.7 °F 79.2 °F 29.94 in SW 2.1 mph 4.6 mph 67 % 0.00 in
17:00 91.4 °F 78.9 °F 29.94 in SW 0.8 mph 2.3 mph 67 % 0.00 in
17:05 91.2 °F 78.7 °F 29.93 in WSW 0.3 mph 2.3 mph 67 % 0.00 in
17:10 91.0 °F 79.0 °F 29.93 in SW 0.9 mph 3.5 mph 68 % 0.00 in
17:15 90.9 °F 78.9 °F 29.93 in SE 2.8 mph 10.4 mph 68 % 0.00 in
17:20 90.9 °F 79.3 °F 29.93 in SW 1.9 mph 4.0 mph 69 % 0.00 in
17:25 91.0 °F 79.0 °F 29.93 in Calm   2.3 mph 68 % 0.00 in
17:30 91.2 °F 78.7 °F 29.94 in South 0.8 mph 3.0 mph 67 % 0.00 in
17:35 91.4 °F 78.9 °F 29.93 in SSE 2.0 mph 5.0 mph 67 % 0.00 in
17:40 91.5 °F 78.5 °F 29.93 in SW 1.3 mph 3.5 mph 66 % 0.00 in
17:46 91.6 °F 79.1 °F 29.93 in SSW 2.0 mph 6.0 mph 67 % 0.00 in
17:51 91.4 °F 78.5 °F 29.93 in South 2.0 mph 7.0 mph 66 % 0.00 in
17:56 91.0 °F 78.5 °F 29.93 in South 2.0 mph 8.0 mph 67 % 0.00 in
18:01 90.8 °F 78.3 °F 29.93 in SSW 2.1 mph 3.0 mph 67 % 0.00 in
18:06 90.7 °F 78.2 °F 29.93 in South 1.5 mph 3.5 mph 67 % 0.00 in
18:11 90.5 °F 78.5 °F 29.93 in Calm   1.2 mph 68 % 0.00 in
18:16 90.4 °F 77.9 °F 29.93 in SSW 0.3 mph 3.5 mph 67 % 0.00 in
18:21 90.2 °F 78.2 °F 29.93 in SSE 0.5 mph 2.3 mph 68 % 0.00 in
18:26 90.1 °F 78.6 °F 29.93 in SW 1.8 mph 3.5 mph 69 % 0.00 in
18:31 89.8 °F 78.3 °F 29.93 in West 1.0 mph 2.3 mph 69 % 0.00 in
18:36 89.5 °F 78.4 °F 29.93 in South 2.9 mph 4.6 mph 70 % 0.00 in
18:41 88.8 °F 78.2 °F 29.93 in SSW 1.7 mph 3.5 mph 71 % 0.00 in
18:46 88.3 °F 78.1 °F 29.94 in SSE 1.3 mph 3.5 mph 72 % 0.00 in
18:52 87.9 °F 78.2 °F 29.93 in South 1.2 mph 4.6 mph 73 % 0.00 in
18:57 87.5 °F 78.2 °F 29.93 in SSE 1.1 mph 2.3 mph 74 % 0.00 in
19:02 87.4 °F 78.1 °F 29.94 in SW 1.2 mph 3.5 mph 74 % 0.00 in
19:07 87.2 °F 78.3 °F 29.94 in SSW 2.3 mph 6.9 mph 75 % 0.00 in
19:12 86.9 °F 78.0 °F 29.94 in SSW 2.4 mph 6.9 mph 75 % 0.00 in
19:22 86.2 °F 76.9 °F 29.95 in West 3.0 mph 5.8 mph 74 % 0.00 in
19:27 85.8 °F 76.5 °F 29.95 in SW 3.3 mph 8.1 mph 74 % 0.00 in
19:32 85.3 °F 76.5 °F 29.95 in SW 3.9 mph 8.1 mph 75 % 0.00 in
19:37 84.7 °F 75.9 °F 29.95 in SSW 3.3 mph 6.9 mph 75 % 0.00 in
19:42 84.3 °F 75.5 °F 29.96 in SSW 2.5 mph 5.8 mph 75 % 0.00 in
19:48 83.8 °F 74.2 °F 29.96 in SSW 3.1 mph 4.6 mph 73 % 0.00 in
19:53 83.4 °F 74.6 °F 29.95 in SW 1.5 mph 3.5 mph 75 % 0.00 in
19:58 83.1 °F 74.4 °F 29.94 in SW 1.3 mph 2.3 mph 75 % 0.00 in
20:03 82.7 °F 74.0 °F 29.94 in WSW 2.6 mph 6.0 mph 75 % 0.00 in
20:08 82.3 °F 74.0 °F 29.95 in Calm   1.2 mph 76 % 0.00 in
20:13 82.0 °F 74.1 °F 29.95 in SW 0.9 mph 2.3 mph 77 % 0.00 in
20:18 81.8 °F 74.3 °F 29.95 in WSW 0.9 mph 2.3 mph 78 % 0.00 in
20:28 81.2 °F 74.4 °F 29.96 in WSW 0.4 mph 3.0 mph 80 % 0.00 in
20:33 81.0 °F 74.2 °F 29.95 in WSW 0.4 mph 2.3 mph 80 % 0.00 in
20:39 80.8 °F 74.0 °F 29.96 in WSW 1.1 mph 2.3 mph 80 % 0.00 in
20:44 80.5 °F 74.1 °F 29.95 in Calm   1.2 mph 81 % 0.00 in
20:49 80.3 °F 74.3 °F 29.95 in WSW 0.4 mph 1.2 mph 82 % 0.00 in
20:54 80.2 °F 74.2 °F 29.95 in Calm     82 % 0.00 in
20:59 80.1 °F 74.1 °F 29.96 in WSW 0.1 mph 1.2 mph 82 % 0.00 in
21:04 80.0 °F 74.4 °F 29.97 in WSW 0.1 mph 1.0 mph 83 % 0.00 in
21:09 79.8 °F 74.2 °F 29.98 in WSW 0.4 mph 3.5 mph 83 % 0.00 in
21:14 79.7 °F 74.1 °F 29.99 in Calm     83 % 0.00 in
21:19 79.7 °F 74.1 °F 29.99 in WSW 0.7 mph 2.0 mph 83 % 0.00 in
21:24 79.6 °F 74.3 °F 29.99 in WSW 0.1 mph   84 % 0.00 in
21:30 79.6 °F 74.3 °F 29.99 in Calm     84 % 0.00 in
21:35 79.6 °F 74.7 °F 29.98 in Calm   1.2 mph 85 % 0.00 in
21:40 79.6 °F 75.0 °F 29.99 in WSW 1.2 mph 2.3 mph 86 % 0.00 in
21:45 79.5 °F 74.9 °F 29.99 in WSW 0.2 mph 1.2 mph 86 % 0.00 in
21:50 79.5 °F 74.9 °F 29.98 in Calm     86 % 0.00 in
21:55 79.4 °F 75.2 °F 29.98 in Calm     87 % 0.01 in
22:00 79.3 °F 75.4 °F 29.98 in Calm     88 % 0.01 in
22:05 79.3 °F 75.8 °F 29.98 in Calm     89 % 0.01 in
22:10 79.2 °F 75.7 °F 29.98 in Calm     89 % 0.02 in
22:15 79.1 °F 75.6 °F 29.98 in Calm     89 % 0.02 in
22:21 79.0 °F 75.5 °F 29.97 in Calm   1.0 mph 89 % 0.00 in
22:26 78.9 °F 75.4 °F 29.97 in Calm     89 % 0.02 in
22:31 78.8 °F 75.3 °F 29.97 in Calm   1.0 mph 89 % 0.00 in
22:36 78.7 °F 75.2 °F 29.97 in Calm   1.0 mph 89 % 0.00 in
22:41 78.5 °F 75.3 °F 29.97 in Calm     90 % 0.02 in
22:46 78.5 °F 75.3 °F 29.97 in Calm     90 % 0.00 in
22:51 78.4 °F 75.2 °F 29.97 in Calm   1.0 mph 90 % 0.00 in
22:56 78.4 °F 75.6 °F 29.96 in Calm     91 % 0.01 in
23:01 78.4 °F 75.9 °F 29.95 in Calm     92 % 0.01 in
23:06 78.3 °F 75.8 °F 29.95 in Calm     92 % 0.01 in
23:11 78.2 °F 75.7 °F 29.95 in Calm     92 % 0.00 in
23:16 78.2 °F 75.7 °F 29.94 in Calm     92 % 0.00 in
23:21 78.2 °F 75.7 °F 29.94 in WSW 0.2 mph 1.2 mph 92 % 0.00 in
23:26 78.1 °F 75.6 °F 29.94 in Calm     92 % 0.00 in
23:31 78.1 °F 75.6 °F 29.95 in Calm     92 % 0.00 in
23:36 78.0 °F 75.5 °F 29.95 in Calm     92 % 0.00 in
23:41 78.0 °F 75.5 °F 29.95 in Calm     92 % 0.00 in
23:46 78.0 °F 75.8 °F 29.94 in Calm     93 % 0.00 in
23:51 78.0 °F 75.8 °F 29.94 in WSW 0.1 mph   93 % 0.00 in
23:56 78.0 °F 75.8 °F 29.93 in WSW 0.1 mph 2.3 mph 93 % 0.00 in
Crab Meadow Weather
Compliments of Weather Underground - 3 mb

Script developed by  Jim McMurry - jmcmurry@mwt.net Adapted for the template by  Wim van der Kuil - Leuven-Template.eu

Lightning: Lightning can strike the same place twice and sometimes many times. The Empire State Building in New York City is struck an average of 23 times a year. During one thunderstorm it was struck 8 times in 24 minutes.